Notices

What's New in latest Release from April 7th, 2021:

- Updated Glossary, including Speed of Maximum Gust, and Total Hourly Precipitation

- Updated national and regional climate services offices contacts and prices information

- Addition of station inventory lists for 1981-2010, 1971-2000, and 1961-1990 Normals.

If you haven't already, please take our survey and provide feedback about our website: https://eccc.sondage-survey.ca/f/LanguageSelection.aspx?s=442ca660-fcf1-47c0-95a9-59707d6fd709

Hourly Data Report for January 04, 2021

EDMUNDSTON
NEW BRUNSWICK
Current Station Operator: ECCC - MSC

47°25'00.000" N
68°19'28.040" W
154.20 m
8101303
71590
ERM

Download Data

Hourly Data (January 2021)
Hourly Data Report for January 4, 2021
TIME
LST
Temp Definition
°C
Dew Point Definition
°C
Rel Hum Definition
%
Precip. Amount Definition
mm

Wind Dir Definition
10's deg

Wind Spd Definition
km/h
Visibility Definition
km
Stn Press Definition
kPa
Hmdx Definition


Wind Chill Definition


Weather Definition


00:00 -5.9 LegendMM LegendMM 0.0 13 8   100.01   -10 LegendNANA
01:00 -6.0 LegendMM LegendMM 0.0 14 7   99.97   -9 LegendNANA
02:00 -6.1 LegendMM LegendMM 0.0 14 7   99.98   -9 LegendNANA
03:00 -6.1 LegendMM LegendMM 0.0 13 7   99.99   -9 LegendNANA
04:00 -6.2 LegendMM LegendMM 0.0 15 6   99.97   -9 LegendNANA
05:00 -6.2 LegendMM LegendMM 0.0 15 5   99.91   -9 LegendNANA
06:00 -6.5 LegendMM LegendMM 0.0 15 9   99.94   -11 LegendNANA
07:00 -6.7 LegendMM LegendMM 0.0 17 7   99.99   -10 LegendNANA
08:00 -6.8 LegendMM LegendMM 0.0 6 3   100.00   -8 LegendNANA
09:00 -6.8 LegendMM LegendMM 0.0 13 3   100.06   -8 LegendNANA
10:00 -6.6 LegendMM LegendMM 0.0 12 4   100.12   -9 LegendNANA
11:00 -6.0 LegendMM LegendMM 0.0 11 3   100.09   -7 LegendNANA
12:00 -6.0 LegendMM LegendMM 0.0 8 4   100.00   -8 LegendNANA
13:00 -5.9 LegendMM LegendMM 0.0 14 5   99.96   -8 LegendNANA
14:00 -5.6 LegendMM LegendMM 0.0 8 3   99.93   -7 LegendNANA
15:00 -5.6 LegendMM LegendMM 0.0 13 4   99.94   -7 LegendNANA
16:00 -5.6 LegendMM LegendMM 0.0 14 2   100.00   -7 LegendNANA
17:00 -5.7 LegendMM LegendMM 0.0 4 3   99.99   -7 LegendNANA
18:00 -5.8 LegendMM LegendMM 0.0 2 4   100.06   -8 LegendNANA
19:00 -5.9 LegendMM LegendMM 0.0 9 4   100.05   -8 LegendNANA
20:00 -5.9 LegendMM LegendMM 0.0 31 1   100.05   -6 LegendNANA
21:00 -5.6 LegendMM LegendMM 0.0 9 4   100.06   -7 LegendNANA
22:00 -5.5 LegendMM LegendMM 0.0 10 4   100.03   -7 LegendNANA
23:00 -5.6 LegendMM LegendMM 0.0 7 6   100.02   -8 LegendNANA

Notes on Data Quality.

Legend

  • E = Estimated
  • M = Missing
  • NA = Not Available*
  • [empty] = Indicates an unobserved value
Date modified: